Location: Équennes
(49.7375°N, 1.9622°E)
Time: 09:54:26
(UTC+00:00)

FLOCK 4Y 13 - Visible Passes

Search period start: 10 July 2025 00:00
Search period end: 20 July 2025 00:00
Orbit: 334 x 347 km, 97.4° (Epoch: 09 July)

Date Brightness Start Highest point End Pass type
(mag) Time Alt. Az. Time Alt. Az. Time Alt. Az.
10 Jul ? 21:25:36 18° SE 21:27:19 40° ENE 21:29:58 10° N visible
11 Jul ? 21:47:38 26° SSE 21:49:03 88° ENE 21:51:50 10° NNW visible
12 Jul ? 20:39:43 10° ENE 20:40:18 10° ENE 20:40:53 10° NE visible
12 Jul ? 22:09:16 25° SSW 22:10:27 41° W 22:13:06 10° NNW visible
13 Jul ? 20:59:12 10° ESE 21:01:08 18° ENE 21:03:06 10° NNE visible
13 Jul ? 22:30:31 18° SW 22:31:32 21° W 22:33:44 10° NW visible
14 Jul ? 21:20:05 17° SE 21:21:40 31° ENE 21:24:09 10° N visible
14 Jul ? 22:51:23 11° WSW 22:52:16 12° W 22:53:23 10° WNW visible
15 Jul ? 21:40:35 27° SSE 21:41:51 63° ENE 21:44:33 10° N visible
16 Jul ? 22:00:41 32° S 22:01:42 60° WSW 22:04:23 10° NNW visible
17 Jul ? 20:49:45 10° E 20:51:04 13° ENE 20:52:23 10° NE visible
17 Jul ? 22:20:24 24° SW 22:21:13 30° W 22:23:39 10° NNW visible
18 Jul ? 21:08:31 14° ESE 21:10:03 21° ENE 21:12:10 10° NNE visible
18 Jul ? 22:39:43 16° WSW 22:40:24 17° W 22:42:16 10° NW visible
19 Jul ? 21:27:29 23° ESE 21:28:40 36° ENE 21:31:11 10° N visible
